Vorticity
nan nan nan nan nan nan nan nan nan nan nan nan nan nan nan nan nan nan nan nan nan nan nan nan nan nan nan nan nan nan nan nan nan nan nan nan nan nan nan nan nan nan nan nan nan nan nan
nan 5 7 8 6 5 5 6 6 7 7 7 8 10 9 6 6 6 6 6 6 5 6 7 8 14 8 -0 10 2 -1 8 11 9 9 7 7 5 7 9 3 7 8 5 7 9 nan
nan 9 10 8 7 6 6 6 5 6 8 8 7 8 9 8 7 6 7 7 5 6 7 10 13 14 12 10 -0 -4 9 11 5 6 9 5 7 9 8 7 10 6 8 16 12 10 nan
nan 8 9 7 6 6 6 6 6 7 8 10 10 8 8 8 8 8 7 6 5 8 15 24 23 13 7 15 7 8 10 10 12 9 6 7 12 8 6 5 10 12 11 12 12 10 nan
nan 5 6 6 7 7 8 8 6 6 8 8 9 9 9 9 9 8 7 6 8 20 31 28 18 9 5 10 12 18 10 4 11 15 8 11 13 9 8 9 4 10 9 5 10 10 nan
nan 6 5 5 6 7 7 7 7 8 8 7 8 8 9 11 9 7 9 18 30 25 20 6 0 4 5 7 10 17 13 8 8 10 9 9 7 7 5 10 10 6 6 8 9 6 nan
nan 7 8 7 6 6 7 7 7 8 8 8 7 7 8 9 8 9 20 23 19 11 -1 3 2 -4 -3 5 5 6 10 11 10 8 11 8 5 9 6 1 8 7 8 7 5 6 nan
nan 7 9 10 8 7 8 8 8 7 6 7 7 8 8 8 8 20 18 6 5 6 10 13 9 10 8 1 1 -1 12 14 10 7 6 11 10 10 11 8 6 7 8 9 8 9 nan
nan 7 6 6 6 7 7 7 7 7 7 7 7 8 9 11 19 19 8 2 -0 15 16 15 22 16 25 19 4 5 5 10 10 10 8 4 12 15 9 9 11 9 9 9 8 10 nan
nan 6 6 7 7 7 7 7 7 7 8 8 8 8 9 16 19 9 5 3 8 16 12 17 16 15 16 11 19 21 4 5 9 11 8 4 10 10 9 9 8 8 12 9 7 8 nan
nan 7 8 7 7 7 7 7 7 8 8 9 9 9 10 20 14 7 5 2 18 12 8 14 12 16 17 1 9 19 8 8 12 9 7 12 10 6 8 11 8 7 9 11 11 9 nan
nan 7 7 7 7 7 8 8 8 8 8 9 10 11 14 17 12 7 6 14 17 10 6 9 12 11 3 4 7 15 11 8 10 7 8 11 8 10 8 10 10 9 8 9 11 9 nan
nan 8 7 8 8 7 8 8 8 9 8 8 9 10 19 13 7 7 10 16 11 4 4 8 6 4 13 16 10 11 11 7 7 9 8 8 7 9 8 6 9 9 6 8 10 11 nan
nan 6 7 8 9 7 6 7 8 8 8 9 10 19 21 9 9 9 10 12 9 7 4 6 7 13 21 5 8 13 9 5 6 8 13 10 10 10 7 8 9 8 9 9 6 5 nan
nan 8 7 7 7 8 7 7 8 9 8 12 19 18 12 13 11 9 11 7 7 7 9 5 15 24 9 7 11 10 9 9 10 6 6 6 11 10 11 11 9 9 9 7 11 10 nan
nan 7 7 7 7 9 8 8 8 10 11 18 17 11 9 14 12 6 8 8 2 3 14 13 9 7 11 13 11 9 9 10 13 9 8 9 8 8 11 6 8 12 8 10 10 9 nan
nan 7 8 7 8 8 8 8 9 11 19 16 8 10 12 12 7 8 8 7 4 6 11 11 10 9 8 9 12 9 9 12 9 11 12 10 6 11 10 9 8 6 9 9 8 9 nan
nan 7 8 8 8 8 8 9 11 19 17 10 9 8 12 9 9 10 8 6 6 5 6 13 10 8 6 8 14 12 8 5 11 12 7 10 10 11 6 12 14 9 9 8 6 8 nan
nan 9 8 7 8 8 9 10 14 23 13 6 9 9 10 9 8 7 8 9 8 11 5 9 10 8 6 16 9 10 7 4 9 16 15 10 9 12 10 6 8 11 9 7 9 10 nan
nan 10 7 8 8 7 8 11 13 18 10 5 8 8 10 10 8 7 12 13 7 13 14 9 9 9 7 12 12 12 8 12 13 7 10 12 10 11 10 7 6 6 7 6 5 2 nan
nan 6 6 7 8 7 8 10 16 18 8 4 11 11 8 7 9 11 9 8 11 12 17 15 5 7 15 12 8 6 9 11 12 9 11 9 8 8 9 10 11 7 5 8 7 3 nan
nan 6 8 7 8 8 8 10 20 22 6 4 10 9 11 7 8 9 8 9 11 14 12 3 7 9 14 12 8 6 6 10 7 10 10 10 12 9 8 12 11 8 13 14 15 15 nan
nan 7 9 7 8 8 9 11 21 16 0 6 6 11 12 8 10 11 9 4 2 9 16 6 11 11 9 5 10 9 9 7 5 6 9 12 10 9 9 8 9 15 11 12 17 17 nan
nan 7 8 7 8 9 10 10 21 15 -4 5 10 10 8 10 9 4 5 7 9 12 14 10 12 11 4 10 15 13 12 11 10 10 9 9 10 9 10 10 11 5 12 17 11 11 nan
nan 10 8 7 9 9 11 10 12 17 4 -2 11 9 8 11 8 10 11 7 7 13 13 12 10 9 10 15 14 12 12 13 14 16 13 11 8 10 12 9 6 10 13 8 10 10 nan
nan 10 8 8 8 9 9 10 11 11 9 5 7 10 10 11 9 12 13 12 11 11 10 11 8 8 16 15 11 12 11 7 8 9 12 14 12 10 8 9 11 10 1 7 14 6 nan
nan 11 8 8 9 8 7 9 14 14 10 8 10 9 9 9 11 11 7 9 11 12 11 6 9 12 11 12 11 9 10 10 10 9 8 7 12 10 8 8 5 8 10 18 14 8 nan
nan 10 8 8 8 8 8 10 11 14 15 6 10 11 6 7 11 11 8 5 7 9 10 10 11 12 10 11 11 9 10 10 11 12 12 11 10 9 9 11 9 11 22 17 11 10 nan
nan nan nan nan nan nan nan nan nan nan nan nan nan nan nan nan nan nan nan nan nan nan nan nan nan nan nan nan nan nan nan nan nan nan nan nan nan nan nan nan nan nan nan nan nan nan nan
CAPE
15 15 14 9 1 4 12 17 19 31 29 30 26 27 20 17 5 5 25 27 6 0 0 3 11 14 4 0 0 0 0 0 0 0 0 0 0 0 0 0 0 0 0 0 0 0 0
10 5 0 22 10 10 11 7 2 14 26 31 54 54 47 30 17 7 11 16 7 1 0 0 5 18 14 0 0 0 0 0 0 0 0 0 0 0 0 0 0 0 0 0 0 0 0
6 12 12 10 14 19 18 13 7 8 11 32 39 47 38 41 22 13 6 12 0 0 0 0 1 12 3 0 0 0 0 0 0 0 0 0 0 0 0 0 0 0 0 0 0 0 0
10 13 17 16 18 21 21 23 20 19 22 29 34 31 66 54 51 47 18 6 0 0 0 0 3 2 0 0 0 0 0 0 0 0 0 0 0 0 0 0 0 0 0 0 0 0 0
3 8 15 13 8 8 13 17 27 17 17 26 28 37 58 69 72 55 44 0 0 0 0 0 2 3 0 0 0 0 0 0 0 0 0 0 0 0 0 0 0 0 0 0 0 0 0
10 3 9 12 14 18 19 18 19 15 16 29 31 28 53 65 73 49 32 0 0 0 0 0 3 1 0 0 0 0 0 0 0 0 0 0 0 0 0 0 0 0 0 0 0 0 0
5 5 5 8 12 11 14 17 13 24 32 36 36 37 25 65 49 45 4 0 0 0 0 0 1 0 0 0 0 0 0 0 0 0 0 0 0 0 0 0 0 0 0 0 0 0 0
4 12 21 22 14 14 18 17 14 16 26 26 21 22 20 30 19 24 0 0 0 2 6 0 0 0 0 0 0 0 0 0 0 0 0 0 0 0 0 0 0 0 0 0 0 0 0
6 3 11 12 13 13 14 14 16 19 23 25 37 33 26 36 2 0 0 0 0 0 24 0 0 0 0 0 0 0 0 0 0 0 0 0 0 0 0 0 0 0 0 0 0 0 0
4 6 5 9 9 6 7 8 7 11 20 28 32 37 65 65 0 0 0 0 0 0 4 0 0 0 0 0 0 0 0 0 0 0 0 0 0 0 0 0 0 0 0 0 0 0 0
8 1 4 6 7 4 3 5 6 8 12 19 30 35 60 61 0 0 0 0 0 6 1 0 0 0 0 0 0 0 0 0 0 0 0 0 0 0 0 0 0 0 0 0 0 0 0
0 10 13 15 15 8 4 6 6 12 16 21 26 42 64 0 0 0 0 0 1 25 0 0 0 0 0 0 0 0 0 0 0 0 0 0 0 0 0 0 0 0 0 0 0 0 0
13 26 15 12 9 5 8 8 6 7 12 23 33 42 32 3 0 0 0 0 26 4 0 3 0 0 0 0 0 0 0 0 0 0 0 0 0 0 0 0 0 0 0 0 0 5 0
8 15 16 16 15 2 4 12 15 7 7 24 36 36 1 0 0 0 0 0 3 0 0 0 0 0 0 0 0 0 0 0 0 0 0 0 0 0 0 0 0 0 0 0 0 0 0
9 10 19 12 14 9 7 11 19 23 30 34 0 0 0 0 0 0 0 0 0 34 118 29 0 0 1 4 1 0 0 0 0 0 0 0 0 0 0 0 0 0 2 1 33 0 12
9 18 8 3 18 20 10 16 26 34 41 25 0 0 0 0 0 0 0 0 12 11 32 28 15 0 0 0 0 0 0 0 0 0 0 0 0 0 0 0 0 0 0 14 33 6 4
10 26 10 15 19 20 16 19 25 43 36 0 0 0 0 0 0 6 0 0 0 6 43 47 36 18 1 0 12 41 3 0 0 0 0 0 0 0 0 0 0 0 2 1 47 20 55
21 12 15 19 16 26 17 18 30 49 6 0 1 0 0 26 18 0 0 0 0 0 6 14 12 46 8 0 2 2 1 0 0 0 0 0 0 0 0 0 0 2 2 1 62 19 18
15 29 18 12 21 31 22 25 41 22 1 0 0 0 0 18 0 0 0 0 26 1 0 9 2 10 0 0 0 1 1 0 0 0 0 0 0 0 0 0 0 1 6 11 9 8 0
25 29 16 13 25 25 26 28 40 19 11 0 0 0 0 4 32 5 3 0 0 2 15 9 12 5 0 0 0 0 0 2 0 0 0 0 0 0 0 0 0 0 0 2 48 10 11
18 31 13 7 14 20 22 33 38 7 24 0 0 0 0 0 1 0 4 0 1 11 26 4 5 3 0 3 1 0 1 0 0 0 0 0 0 0 0 0 0 0 0 0 9 0 24
7 7 14 8 9 18 16 36 41 31 10 0 0 0 3 0 0 0 3 6 7 3 29 8 0 0 2 15 0 0 0 0 0 0 0 0 0 0 0 0 0 0 0 0 0 0 0
19 23 26 10 20 15 25 31 47 34 0 0 0 0 0 0 0 0 3 3 0 12 5 1 0 3 0 0 0 0 0 0 0 0 0 0 0 0 0 0 0 0 0 6 3 0 0
34 25 15 3 20 15 35 36 33 47 0 0 0 0 0 0 0 0 0 0 0 0 0 0 4 0 4 0 0 0 0 0 0 0 0 0 0 0 0 0 0 0 0 3 0 2 0
27 27 18 21 17 13 43 39 37 45 17 0 0 0 0 0 0 0 0 0 0 0 0 0 6 0 0 0 0 0 0 0 0 0 0 0 0 0 0 0 0 0 0 0 2 0 19
31 37 15 24 17 32 44 40 34 38 53 0 0 0 0 0 0 0 0 0 0 0 0 0 0 0 0 0 0 0 0 0 0 0 0 0 0 0 0 0 0 0 0 0 15 0 0
33 48 12 28 18 32 27 39 41 45 56 4 0 0 8 1 0 0 0 0 0 0 0 0 0 1 0 0 0 0 0 0 0 0 0 0 0 0 0 8 0 0 0 0 4 0 0
41 44 23 27 27 22 23 43 40 47 61 16 0 0 1 0 0 0 0 0 0 0 0 0 0 0 0 0 0 0 0 0 0 0 0 0 0 0 0 1 0 0 0 0 1 0 1
44 33 19 21 16 26 31 45 31 49 61 37 11 0 0 5 0 0 0 0 0 0 0 0 0 28 14 14 1 1 0 0 0 0 0 8 3 26 0 0 7 2 6 2 0 0 1